Vorticity
3 2 -1 0 6 3 5 4 4 2 1 2 2 5 6 17 6 6 7 8 5 6 6 6 9 3 6 11 12 8 7 7 8 7 8 8 8 6 6 7 8 10 10
3 -0 1 -5 3 4 0 5 4 3 4 3 8 7 10 2 1 10 10 2 -8 -6 8 3 2 12 11 12 8 7 8 7 8 6 4 4 7 9 7 10 11 11 11
-2 4 6 -0 -2 2 4 5 6 6 3 5 9 3 6 2 7 12 2 13 -14 21 -9 -8 12 9 9 7 6 8 7 8 7 4 6 5 3 8 10 11 11 19 24
-7 5 10 9 3 -0 2 6 3 9 15 6 3 5 2 3 7 -8 8 8 14 -9 18 -6 7 13 8 5 8 8 8 8 7 6 7 9 10 7 8 12 17 10 7
0 9 1 -8 22 0 5 6 9 6 15 3 4 6 2 3 8 3 2 4 0 4 1 7 12 12 5 8 6 9 9 6 6 6 9 12 10 14 11 9 9 5 22
9 10 2 -3 10 22 2 7 3 11 13 0 4 5 3 7 3 0 10 3 0 -2 7 25 13 7 6 7 8 10 6 6 8 12 12 10 12 15 14 14 1 18 15
7 3 1 3 14 12 13 7 9 7 5 6 1 3 2 0 1 2 1 2 2 -0 8 16 12 6 6 6 10 7 7 9 12 13 10 14 13 6 13 11 12 19 8
4 5 13 30 5 0 7 24 14 -0 4 9 0 -0 3 5 3 1 1 1 0 9 4 11 10 5 7 8 9 7 10 10 15 12 11 17 16 2 21 -11 12 1 1
9 12 23 9 -5 -3 7 16 2 -2 4 10 3 1 4 4 3 3 3 2 0 10 5 10 8 8 8 9 7 8 10 11 11 13 14 17 18 17 7 -0 21 -19 9
23 6 1 1 6 5 6 9 3 -3 2 5 7 4 8 6 5 4 3 5 7 13 5 8 5 7 9 8 11 11 15 14 11 11 18 22 18 5 -9 10 -7 6 4
3 13 16 16 12 11 12 20 4 -0 5 2 7 5 8 5 5 3 2 -2 19 7 20 5 9 9 10 11 10 10 14 9 15 15 18 13 12 9 12 -9 8 10 6
4 3 3 7 15 9 8 13 17 15 10 5 7 6 7 8 5 5 9 9 10 13 7 3 5 9 7 12 14 17 12 17 10 11 10 5 8 4 0 11 9 14 13
8 6 6 -1 6 5 3 -0 2 6 3 12 16 10 10 8 6 3 13 6 10 6 1 25 11 8 13 14 13 14 11 13 10 9 3 9 11 11 12 11 15 17 17
13 9 12 9 12 5 -4 2 2 5 5 6 15 18 15 7 18 5 10 19 9 5 23 9 9 5 4 10 16 14 9 8 8 6 6 9 10 8 9 14 16 13 10
-2 21 13 11 11 13 13 10 -4 5 9 12 15 19 10 14 16 11 9 -2 6 8 3 8 12 7 5 10 18 11 15 14 11 9 8 10 11 9 14 18 9 10 10
3 34 5 19 15 8 4 5 8 12 15 12 11 15 8 12 6 4 3 11 8 22 -1 2 4 4 8 9 13 13 8 12 7 8 10 12 9 14 17 10 9 11 12
8 13 15 17 2 3 10 13 13 11 12 11 9 5 4 12 8 10 13 10 -8 28 4 1 6 7 5 9 11 11 7 12 9 7 10 12 10 18 11 9 11 13 12
9 7 8 12 14 15 -1 18 14 9 11 10 8 6 8 10 1 32 -2 17 15 5 4 5 8 5 11 10 8 -0 4 13 11 7 11 9 15 14 8 12 15 13 11
9 9 6 2 16 13 6 7 6 9 7 11 10 9 12 -2 16 22 25 18 8 7 3 4 11 16 15 13 15 8 12 13 10 10 11 16 15 9 11 15 14 13 11
9 5 7 14 14 10 11 9 16 19 12 7 7 3 -2 28 20 22 32 10 5 3 0 16 14 19 17 10 8 10 13 12 11 10 17 15 9 8 14 13 12 11 10
8 6 10 11 17 21 20 7 6 7 15 9 -0 15 16 30 -6 30 11 10 -3 1 18 14 14 12 11 10 12 14 17 13 8 19 15 10 7 13 13 11 11 12 10
4 7 9 13 21 16 14 10 10 10 -10 6 21 37 13 26 31 9 7 -2 8 14 12 10 10 12 10 10 14 12 17 8 13 15 15 7 7 12 10 10 11 13 13
9 13 12 14 15 15 15 15 16 17 15 16 30 -2 38 9 15 1 0 9 11 12 9 9 9 9 6 10 11 25 4 7 10 14 15 7 8 12 11 10 12 11 10
12 9 9 10 4 7 12 9 11 21 32 31 30 22 19 10 -1 2 8 8 13 12 9 8 8 9 9 8 11 11 6 7 6 14 16 8 8 11 10 10 10 10 8
8 8 17 9 7 21 24 27 26 22 19 15 13 15 2 0 8 7 8 8 9 11 10 10 10 10 11 11 9 13 9 7 6 12 17 10 7 11 8 8 9 8 7
17 18 17 24 19 15 12 12 10 7 9 11 5 4 8 7 7 7 7 8 7 9 9 12 12 11 11 13 12 10 13 7 7 10 15 12 7 8 10 7 7 7 5
Height
3152 3154 3154 3155 3156 3157 3159 3161 3160 3160 3160 3162 3163 3163 3164 3165 3164 3163 3162 3163 3162 3160 3157 3153 3151 3148 3146 3141 3137 3133 3129 3126 3123 3119 3116 3113 3110 3106 3103 3100 3098 3094 3091
3151 3152 3149 3151 3152 3154 3156 3159 3157 3157 3157 3158 3159 3160 3161 3160 3158 3159 3159 3157 3156 3153 3151 3148 3145 3141 3137 3133 3129 3125 3121 3118 3113 3110 3106 3103 3102 3097 3092 3088 3086 3081 3078
3150 3151 3149 3147 3148 3150 3152 3155 3154 3154 3152 3152 3154 3153 3154 3155 3156 3156 3154 3153 3151 3147 3144 3141 3138 3134 3129 3126 3122 3118 3113 3109 3105 3100 3097 3090 3085 3082 3077 3074 3069 3068 3067
3146 3147 3148 3143 3143 3144 3147 3148 3149 3149 3148 3148 3148 3148 3147 3148 3150 3150 3148 3146 3144 3142 3140 3136 3132 3127 3121 3117 3113 3109 3105 3101 3097 3091 3086 3081 3076 3069 3065 3062 3059 3055 3053
3140 3140 3144 3143 3144 3144 3144 3144 3143 3143 3145 3147 3148 3148 3146 3146 3145 3143 3141 3139 3138 3135 3133 3129 3125 3119 3115 3111 3106 3101 3097 3092 3087 3081 3075 3071 3066 3062 3057 3050 3048 3046 3044
3137 3138 3140 3142 3144 3142 3140 3140 3140 3140 3142 3143 3145 3145 3145 3144 3142 3139 3137 3135 3133 3129 3126 3121 3117 3111 3107 3102 3097 3092 3088 3083 3077 3072 3066 3060 3054 3050 3046 3042 3039 3035 3034
3134 3134 3135 3137 3138 3137 3137 3136 3135 3138 3140 3141 3141 3140 3139 3139 3137 3135 3133 3130 3127 3122 3118 3114 3109 3103 3097 3092 3089 3085 3079 3073 3068 3063 3058 3052 3047 3042 3038 3035 3031 3027 3026
3131 3132 3132 3133 3132 3133 3133 3132 3133 3135 3138 3138 3137 3136 3135 3134 3131 3129 3127 3123 3119 3114 3109 3106 3101 3093 3089 3085 3081 3076 3070 3064 3059 3054 3050 3044 3040 3035 3030 3029 3024 3020 3017
3128 3129 3128 3127 3127 3128 3128 3128 3129 3131 3133 3134 3133 3131 3129 3128 3126 3123 3119 3114 3109 3104 3100 3096 3092 3085 3080 3075 3070 3065 3059 3055 3049 3044 3039 3035 3032 3029 3027 3023 3019 3015 3009
3125 3124 3124 3124 3124 3124 3125 3124 3123 3126 3127 3128 3127 3125 3123 3121 3117 3114 3110 3106 3102 3095 3092 3088 3082 3077 3073 3067 3062 3056 3049 3044 3039 3035 3032 3031 3028 3024 3022 3018 3014 3009 3004
3119 3120 3119 3119 3120 3121 3123 3122 3119 3119 3121 3122 3120 3117 3114 3111 3108 3105 3101 3098 3091 3087 3082 3078 3072 3068 3063 3059 3054 3048 3042 3036 3033 3030 3027 3024 3021 3019 3016 3011 3007 3002 2997
3115 3116 3114 3114 3114 3115 3116 3117 3114 3112 3112 3112 3111 3108 3105 3103 3100 3096 3093 3088 3082 3078 3074 3068 3064 3060 3056 3051 3046 3039 3034 3030 3026 3023 3021 3018 3015 3012 3009 3005 2998 2993 2988
3112 3111 3110 3108 3107 3107 3106 3106 3106 3105 3104 3103 3102 3099 3097 3094 3090 3086 3081 3076 3071 3068 3064 3061 3057 3052 3047 3043 3037 3032 3028 3023 3019 3015 3013 3011 3008 3004 3001 2996 2990 2984 2980
3109 3108 3105 3102 3099 3099 3099 3100 3099 3098 3097 3095 3092 3090 3088 3084 3080 3075 3071 3065 3061 3059 3057 3054 3050 3045 3039 3036 3031 3026 3022 3018 3013 3010 3005 3002 3000 2996 2992 2986 2981 2975 2971
3107 3106 3102 3100 3097 3095 3094 3094 3093 3092 3090 3088 3085 3082 3078 3074 3069 3065 3060 3057 3053 3051 3049 3046 3043 3037 3034 3029 3025 3021 3016 3013 3008 3004 2999 2996 2992 2988 2984 2979 2974 2968 2963
3104 3102 3099 3098 3096 3093 3091 3090 3089 3086 3083 3080 3077 3073 3069 3064 3060 3055 3050 3048 3047 3043 3040 3039 3034 3030 3025 3022 3019 3015 3011 3007 3003 2998 2993 2989 2984 2980 2976 2972 2966 2960 2953
3096 3097 3095 3093 3091 3088 3087 3085 3082 3079 3075 3073 3069 3064 3060 3055 3049 3046 3043 3041 3038 3035 3033 3030 3028 3023 3018 3015 3011 3009 3005 3001 2996 2992 2987 2983 2977 2974 2969 2964 2960 2955 2950
3090 3089 3089 3088 3085 3082 3080 3077 3074 3071 3068 3064 3060 3055 3051 3046 3040 3036 3035 3034 3032 3028 3026 3025 3020 3016 3011 3008 3005 3002 2998 2994 2990 2984 2980 2975 2971 2967 2963 2959 2954 2950 2944
3084 3081 3080 3079 3078 3076 3074 3071 3067 3064 3059 3054 3050 3046 3041 3035 3030 3033 3032 3030 3026 3023 3021 3017 3013 3010 3006 3002 2998 2995 2991 2986 2983 2979 2973 2970 2965 2962 2957 2953 2948 2944 2940
3077 3075 3075 3073 3071 3068 3065 3063 3060 3053 3048 3043 3040 3035 3031 3025 3027 3028 3027 3024 3021 3018 3013 3009 3006 3003 2999 2995 2992 2988 2984 2980 2976 2972 2967 2963 2960 2955 2951 2947 2943 2939 2935
3072 3071 3069 3067 3065 3061 3057 3054 3048 3045 3043 3037 3032 3027 3025 3022 3024 3022 3019 3018 3014 3010 3007 3002 3000 2996 2993 2988 2985 2980 2977 2974 2971 2967 2962 2957 2954 2950 2946 2942 2938 2934 2930
3066 3066 3063 3060 3057 3055 3053 3049 3044 3039 3034 3029 3025 3021 3021 3021 3018 3014 3011 3009 3006 3002 2999 2996 2992 2989 2985 2981 2978 2974 2972 2970 2965 2960 2956 2953 2948 2945 2941 2938 2934 2930 2926
3060 3058 3055 3052 3050 3047 3045 3042 3038 3034 3030 3025 3020 3020 3016 3014 3010 3006 3004 3002 2999 2995 2991 2988 2985 2982 2979 2975 2971 2967 2965 2963 2959 2955 2951 2948 2944 2941 2938 2934 2931 2928 2924
3051 3049 3046 3043 3040 3038 3035 3032 3028 3025 3022 3019 3015 3013 3010 3006 3003 3000 2997 2995 2992 2988 2984 2980 2978 2975 2973 2968 2965 2961 2958 2955 2952 2949 2946 2943 2940 2938 2935 2931 2928 2924 2920
3042 3039 3036 3034 3031 3027 3024 3022 3019 3016 3013 3011 3008 3005 3001 2999 2997 2994 2991 2987 2984 2980 2977 2973 2970 2967 2963 2961 2958 2954 2950 2948 2945 2942 2940 2938 2936 2933 2930 2927 2924 2921 2918
3035 3031 3028 3025 3022 3020 3017 3014 3012 3010 3007 3004 3001 2998 2995 2992 2989 2987 2983 2979 2976 2972 2969 2966 2962 2958 2954 2951 2949 2946 2943 2940 2939 2936 2934 2932 2930 2928 2926 2924 2921 2918 2915